CW7849 Weather Reports


time (UTC)temp
C
wind
direction
speed
KPH
gust
KPH
rain 1hr
cm
rain 24hr
cm
rain mn
cm
humidity
%
barometer
mb
20260507105403 12 353 6.4 16.1 0.00 0.00 0.00 37 1017.7
20260507104403 12 25 8.0 14.5 0.00 0.00 0.00 34 1017.5
20260507103903 12 26 6.4 20.9 0.00 0.00 0.00 36 1017.4
20260507102403 13 347 4.8 12.9 0.00 0.00 0.00 33 1017.3
20260507101903 13 357 8.0 16.1 0.00 0.00 0.00 32 1017.0
20260507101403 13 333 6.4 16.1 0.00 0.00 0.00 36 1016.9
20260507100404 13 282 3.2 16.1 0.00 0.00 0.00 41 1016.8
20260507095903 13 279 4.8 14.5 0.00 0.00 0.00 40 1016.7
20260507095404 12 314 1.6 12.9 0.00 0.00 0.00 43 1016.6
20260507094903 12 288 4.8 14.5 0.00 0.00 0.00 42 1016.6
20260507093903 12 347 4.8 11.3 0.00 0.00 0.00 41 1016.7
20260507093403 12 340 8.0 14.5 0.00 0.00 0.00 46 1016.5
20260507092903 12 268 9.7 16.1 0.00 0.00 0.00 41 1016.4
20260507092403 12 281 3.2 9.7 0.00 0.00 0.00 40 1016.3
20260507091403 12 288 3.2 11.3 0.00 0.00 0.00 46 1016.3
20260507090404 12 293 3.2 8.0 0.00 0.00 0.00 46 1016.2
20260507085903 11 282 3.2 12.9 0.00 0.00 0.00 45 1016.2
20260507085403 11 274 6.4 14.5 0.00 0.00 0.00 43 1016.2
20260507084403 11 274 8.0 12.9 0.00 0.00 0.00 47 1016.4
20260507083903 11 271 4.8 9.7 0.00 0.00 0.00 51 1016.3
20260507083404 11 305 3.2 8.0 0.00 0.00 0.00 47 1016.2
20260507082903 11 234 9.7 12.9 0.00 0.00 0.00 47 1016.2
20260507082403 11 263 8.0 12.9 0.00 0.00 0.00 48 1016.2
20260507081903 11 267 4.8 14.5 0.00 0.00 0.00 49 1016.2
20260507081403 11 274 8.0 12.9 0.00 0.00 0.00 48 1016.2
20260507080903 11 271 3.2 11.3 0.00 0.00 0.00 51 1016.1
20260507080403 10 311 3.2 9.7 0.00 0.00 0.00 54 1016.1
20260507075403 10 282 3.2 11.3 0.00 0.00 0.00 55 1016.0
20260507074903 10 273 3.2 12.9 0.00 0.00 0.00 56 1016.0
20260507074403 10 266 3.2 11.3 0.00 0.00 0.00 58 1015.9
20260507073903 9 249 4.8 12.9 0.00 0.00 0.00 57 1015.9
20260507073404 9 264 4.8 12.9 0.00 0.00 0.00 58 1015.9
20260507072903 9 230 3.2 8.0 0.00 0.00 0.00 58 1015.9
20260507072403 8 249 4.8 9.7 0.00 0.00 0.00 61 1015.9
20260507071904 8 234 4.8 9.7 0.00 0.00 0.00 61 1015.9
20260507071404 8 264 4.8 8.0 0.00 0.00 0.00 61 1015.9
20260507070904 8 274 3.2 4.8 0.00 0.00 0.00 63 1015.8
20260507070403 8 219 6.4 12.9 0.00 0.00 0.00 62 1015.8
20260507065903 7 246 3.2 4.8 0.00 0.00 0.00 63 1015.9
20260507065403 7 275 4.8 9.7 0.00 0.00 0.00 64 1015.9
20260507064403 7 254 6.4 12.9 0.00 0.00 0.00 65 1015.8
20260507063903 7 246 4.8 11.3 0.00 0.00 0.00 68 1015.7
20260507063404 7 257 8.0 14.5 0.00 0.00 0.00 69 1015.8
20260507062904 7 248 4.8 9.7 0.00 0.00 0.00 70 1015.7
20260507061904 6 241 6.4 11.3 0.00 0.00 0.00 71 1015.7
20260507061403 6 250 8.0 11.3 0.00 0.00 0.00 72 1015.6
20260507060903 6 247 8.0 12.9 0.00 0.00 0.00 73 1015.6
20260507060403 5 239 8.0 14.5 0.00 0.00 0.00 74 1015.6
20260507055903 5 226 8.0 11.3 0.00 0.00 0.00 74 1015.6
20260507054903 5 234 8.0 11.3 0.00 0.00 0.00 75 1015.3
20260507054403 5 240 8.0 11.3 0.00 0.00 0.00 75 1015.3
20260507053903 4 234 8.0 12.9 0.00 0.00 0.00 76 1015.2
20260507053403 4 229 8.0 11.3 0.00 0.00 0.00 75 1015.1
20260507052903 4 228 8.0 11.3 0.00 0.00 0.00 76 1015.2
20260507052404 3 224 8.0 9.7 0.00 0.00 0.00 76 1015.2
20260507051904 3 231 8.0 11.3 0.00 0.00 0.00 77 1015.1
20260507050904 3 216 8.0 9.7 0.00 0.00 0.00 78 1015.0
20260507050403 3 214 4.8 8.0 0.00 0.00 0.00 79 1015.0
20260507045904 2 212 8.0 8.0 0.00 0.00 0.00 79 1014.9
20260507044903 2 202 4.8 4.8 0.00 0.00 0.00 79 1014.8
20260507044403 2 212 8.0 9.7 0.00 0.00 0.00 79 1014.8
20260507043904 2 198 3.2 4.8 0.00 0.00 0.00 79 1014.8
20260507042403 1 194 4.8 8.0 0.00 0.00 0.00 80 1014.8
20260507041903 1 197 4.8 8.0 0.00 0.00 0.00 80 1014.7
20260507041403 1 195 4.8 8.0 0.00 0.00 0.00 80 1014.7
20260507040403 1 200 4.8 8.0 0.00 0.00 0.00 80 1014.6
20260507035903 1 194 4.8 8.0 0.00 0.00 0.00 81 1014.6
20260507035404 1 191 4.8 8.0 0.00 0.00 0.00 81 1014.4
20260507034903 0 194 4.8 8.0 0.00 0.00 0.00 82 1014.4
20260507033403 0 183 1.6 4.8 0.00 0.00 0.00 82 1014.3
20260507032903 0 172 1.6 4.8 0.00 0.00 0.00 82 1014.2
20260507032403 0 175 1.6 3.2 0.00 0.00 0.00 82 1014.2
20260507031903 0 180 0.0 3.2 0.00 0.00 0.00 81 1014.3
20260507031403 0 180 1.6 3.2 0.00 0.00 0.00 81 1014.2
20260507030903 0 180 0.0 3.2 0.00 0.00 0.00 81 1014.1
20260507025905 0 180 0.0 0.0 0.00 0.00 0.00 80 1014.1
20260507024403 0 180 0.0 0.0 0.00 0.00 0.00 79 1014.0
20260507023904 0 180 1.6 3.2 0.00 0.00 0.00 79 1014.0
20260507023403 0 189 0.0 1.6 0.00 0.00 0.00 78 1014.0
20260507022904 1 189 0.0 1.6 0.00 0.00 0.00 78 1013.9
20260507022404 1 189 0.0 0.0 0.00 0.00 0.00 78 1013.9
20260507021904 1 189 0.0 1.6 0.00 0.00 0.00 78 1013.9
20260507021404 1 189 3.2 4.8 0.00 0.00 0.00 79 1013.9
20260507020903 1 204 3.2 8.0 0.00 0.00 0.00 79 1013.9
20260507020403 1 207 4.8 4.8 0.00 0.00 0.00 79 1013.9
20260507015404 1 198 4.8 8.0 0.00 0.00 0.00 80 1013.9
20260507014903 1 196 4.8 9.7 0.00 0.00 0.00 80 1013.8
20260507014403 1 202 6.4 8.0 0.00 0.00 0.00 82 1013.8
20260507013903 0 209 3.2 4.8 0.00 0.00 0.00 82 1013.7
20260507013403 0 218 3.2 4.8 0.00 0.00 0.00 81 1013.8
20260507012903 0 225 3.2 4.8 0.00 0.00 0.00 80 1013.7
20260507012404 0 219 3.2 4.8 0.00 0.00 0.00 80 1013.6
20260507011904 0 219 4.8 4.8 0.00 0.00 0.00 79 1013.6
20260507011403 1 222 3.2 4.8 0.00 0.00 0.00 78 1013.5
20260507010904 1 222 4.8 8.0 0.00 0.00 0.00 77 1013.5
20260507010404 1 221 4.8 8.0 0.00 0.00 0.00 77 1013.5
20260507005904 1 223 4.8 4.8 0.00 0.00 0.00 76 1013.3
20260507004903 1 218 4.8 4.8 0.00 0.00 0.00 76 1013.2
20260507004404 2 211 6.4 9.7 0.00 0.00 0.00 75 1013.1
20260507003903 2 217 4.8 4.8 0.00 0.00 0.00 75 1013.1
20260507003403 2 211 4.8 8.0 0.00 0.00 0.00 75 1013.2
20260507002403 2 201 4.8 4.8 0.00 0.00 0.00 76 1013.2
20260507001903 1 187 3.2 4.8 0.00 0.00 0.00 77 1013.2
20260507001404 1 120 1.6 3.2 0.00 0.00 0.00 77 1013.2
20260507000904 0 96 0.0 0.0 0.00 0.00 0.00 78 1013.1
20260507000405 0 96 0.0 1.6 0.00 0.00 0.00 77 1013.1
20260506235904 0 96 0.0 3.2 0.00 0.00 0.00 77 1013.0
20260506235403 0 96 1.6 3.2 0.00 0.00 0.00 77 1013.0
20260506234904 0 96 3.2 4.8 0.00 0.00 0.00 76 1012.9
20260506234403 0 75 1.6 3.2 0.00 0.00 0.00 76 1012.9
20260506233904 0 72 1.6 3.2 0.00 0.00 0.00 76 1012.8
20260506233403 0 56 0.0 0.0 0.00 0.00 0.00 76 1012.8
20260506232904 0 56 0.0 0.0 0.00 0.00 0.00 75 1012.8
20260506232404 0 56 0.0 0.0 0.00 0.00 0.00 75 1012.7
20260506231903 0 56 0.0 0.0 0.00 0.00 0.00 75 1012.7
20260506231404 0 56 0.0 0.0 0.00 0.00 0.00 75 1012.6
20260506230903 0 56 0.0 3.2 0.00 0.00 0.00 75 1012.5
20260506230403 0 56 0.0 3.2 0.00 0.00 0.00 75 1012.5
20260506225904 0 56 1.6 3.2 0.00 0.00 0.00 74 1012.6
20260506225403 0 56 1.6 4.8 0.00 0.00 0.00 73 1012.5
20260506224404 0 56 3.2 4.8 0.00 0.00 0.00 73 1012.4
20260506223903 0 70 3.2 4.8 0.00 0.00 0.00 72 1012.4
20260506223404 0 37 0.0 0.0 0.00 0.00 0.00 72 1012.4
20260506222904 1 37 0.0 3.2 0.00 0.00 0.00 73 1012.5
20260506222404 0 37 1.6 3.2 0.00 0.00 0.00 72 1012.4
20260506221904 1 37 0.0 0.0 0.00 0.00 0.00 71 1012.5
20260506221403 1 37 0.0 1.6 0.00 0.00 0.00 71 1012.4
20260506220904 1 37 1.6 3.2 0.00 0.00 0.00 71 1012.4
20260506215903 1 37 0.0 0.0 0.00 0.00 0.00 72 1012.4
20260506215404 1 37 0.0 0.0 0.00 0.00 0.00 72 1012.4
20260506214904 1 37 1.6 3.2 0.00 0.00 0.00 72 1012.3
20260506214403 1 37 1.6 3.2 0.00 0.00 0.00 71 1012.2
20260506213903 1 37 1.6 3.2 0.00 0.00 0.00 70 1012.2
20260506213403 1 37 0.0 3.2 0.00 0.00 0.00 71 1012.2
20260506212904 1 37 3.2 4.8 0.00 0.00 0.00 70 1012.2
20260506212403 1 37 1.6 3.2 0.00 0.00 0.00 69 1012.2
20260506211904 1 37 1.6 3.2 0.00 0.00 0.00 68 1012.2
20260506211404 2 257 1.6 3.2 0.00 0.00 0.00 68 1012.2
20260506210903 2 257 0.0 0.0 0.00 0.00 0.00 69 1012.2
20260506210404 2 257 0.0 0.0 0.00 0.00 0.00 69 1012.2
20260506205904 2 257 0.0 3.2 0.00 0.00 0.00 69 1012.2
20260506205404 2 257 0.0 4.8 0.00 0.00 0.00 68 1012.2
20260506204905 2 263 1.6 9.7 0.00 0.00 0.00 67 1012.2
20260506204404 2 60 0.0 0.0 0.00 0.00 0.00 66 1012.1
20260506203904 2 60 1.6 3.2 0.00 0.00 0.00 65 1012.1
20260506203404 2 60 1.6 3.2 0.00 0.00 0.00 63 1012.1
20260506202904 3 60 0.0 0.0 0.00 0.00 0.00 60 1012.0
20260506201903 3 60 0.0 0.0 0.00 0.00 0.00 58 1012.1
20260506201404 4 60 0.0 0.0 0.00 0.00 0.00 57 1012.1
20260506200904 5 60 0.0 0.0 0.00 0.00 0.00 57 1012.2
20260506195904 5 60 1.6 1.6 0.00 0.00 0.00 54 1012.2
20260506195403 5 60 1.6 3.2 0.00 0.00 0.00 54 1012.1
20260506194404 6 60 1.6 4.8 0.00 0.00 0.00 48 1012.1
20260506193904 7 55 1.6 3.2 0.00 0.00 0.00 47 1012.1
20260506193404 7 55 0.0 0.0 0.00 0.00 0.00 44 1012.1
20260506192904 7 55 0.0 0.0 0.00 0.00 0.00 43 1012.0
20260506192405 7 55 1.6 1.6 0.00 0.00 0.00 42 1012.0
20260506191404 8 56 3.2 4.8 0.00 0.00 0.00 40 1011.9
20260506190904 8 56 1.6 4.8 0.00 0.00 0.00 40 1011.9
20260506190404 8 56 3.2 4.8 0.00 0.00 0.00 39 1011.9
20260506185904 8 55 3.2 4.8 0.00 0.00 0.00 38 1011.8
20260506185404 8 50 1.6 4.8 0.00 0.00 0.00 38 1011.9
20260506184904 8 50 1.6 4.8 0.00 0.00 0.00 40 1011.9
20260506184404 9 50 4.8 4.8 0.00 0.00 0.00 39 1011.9
20260506183404 9 49 3.2 4.8 0.00 0.00 0.00 39 1011.8
20260506182902 10 55 3.2 4.8 0.00 0.00 0.00 39 1011.7
20260506182403 10 62 3.2 4.8 0.00 0.00 0.00 38 1011.6
20260506181403 10 58 4.8 8.0 0.00 0.00 0.00 35 1011.6
20260506180903 10 54 4.8 8.0 0.00 0.00 0.00 35 1011.5
20260506180403 10 59 3.2 8.0 0.00 0.00 0.00 35 1011.5
20260506175904 11 32 3.2 4.8 0.00 0.00 0.00 34 1011.5
20260506175403 11 13 3.2 4.8 0.00 0.00 0.00 33 1011.5
20260506174903 11 19 4.8 9.7 0.00 0.00 0.00 34 1011.4
20260506174402 11 23 3.2 8.0 0.00 0.00 0.00 36 1011.2
20260506173904 11 31 3.2 11.3 0.00 0.00 0.00 36 1011.3
20260506173403 11 39 4.8 9.7 0.00 0.00 0.00 35 1011.3
20260506171903 11 48 6.4 14.5 0.00 0.00 0.00 33 1011.3
20260506171403 11 40 6.4 16.1 0.00 0.00 0.00 34 1011.3
20260506170903 11 41 11.3 19.3 0.00 0.00 0.00 32 1011.2
20260506170403 12 47 11.3 19.3 0.00 0.00 0.00 32 1011.2
20260506165903 12 37 4.8 8.0 0.00 0.00 0.00 31 1011.2
20260506164904 12 10 6.4 11.3 0.00 0.00 0.00 32 1011.2
20260506164403 12 13 6.4 12.9 0.00 0.00 0.00 31 1011.2
20260506163903 12 19 3.2 12.9 0.00 0.00 0.00 33 1011.2
20260506163403 12 19 9.7 16.1 0.00 0.00 0.00 32 1011.2
20260506162904 12 4 6.4 11.3 0.00 0.00 0.00 31 1011.2
20260506162403 12 18 6.4 12.9 0.00 0.00 0.00 31 1011.3
20260506161903 13 2 8.0 19.3 0.00 0.00 0.00 32 1011.3
20260506161403 12 340 4.8 14.5 0.00 0.00 0.00 32 1011.3
20260506160902 12 353 4.8 16.1 0.00 0.00 0.00 33 1011.3
20260506160403 12 337 4.8 14.5 0.00 0.00 0.00 32 1011.3
20260506155903 12 351 8.0 16.1 0.00 0.00 0.00 32 1011.2
20260506154903 12 336 8.0 14.5 0.00 0.00 0.00 32 1011.3
20260506154402 12 350 6.4 16.1 0.00 0.00 0.00 33 1011.2
20260506153903 12 8 6.4 19.3 0.00 0.00 0.00 34 1011.2
20260506153403 12 2 9.7 22.5 0.00 0.00 0.00 33 1011.2
20260506152903 12 13 4.8 19.3 0.00 0.00 0.00 34 1011.2
20260506152403 12 9 8.0 16.1 0.00 0.00 0.00 33 1011.3
20260506151403 12 18 9.7 19.3 0.00 0.00 0.00 32 1011.4
20260506150903 12 354 9.7 22.5 0.00 0.00 0.00 34 1011.4
20260506150403 12 353 11.3 22.5 0.00 0.00 0.00 32 1011.5
20260506145903 12 356 9.7 24.1 0.00 0.00 0.00 33 1011.6
20260506145403 12 347 9.7 19.3 0.00 0.00 0.00 32 1011.6
20260506144903 12 357 8.0 16.1 0.00 0.00 0.00 35 1011.7
20260506144403 12 3 12.9 22.5 0.00 0.00 0.00 34 1011.7
20260506143903 12 7 11.3 19.3 0.00 0.00 0.00 30 1011.8
20260506143403 12 3 11.3 16.1 0.00 0.00 0.00 33 1011.7
20260506142402 12 343 9.7 20.9 0.00 0.00 0.00 33 1011.7
20260506141902 12 345 9.7 19.3 0.00 0.00 0.00 34 1011.6
20260506140904 12 351 11.3 22.5 0.00 0.00 0.00 30 1011.7
20260506135903 13 335 9.7 20.9 0.00 0.00 0.00 32 1011.8
20260506134903 13 359 8.0 24.1 0.00 0.00 0.00 35 1012.0
20260506132903 13 328 4.8 11.3 0.00 0.00 0.00 26 1011.9
20260506132403 14 277 3.2 12.9 0.00 0.00 0.00 27 1012.0
20260506131903 13 273 4.8 9.7 0.00 0.00 0.00 22 1012.1
20260506131403 13 176 4.8 9.7 0.00 0.00 0.00 22 1012.2
20260506130903 14 201 8.0 12.9 0.00 0.00 0.00 24 1012.4
20260506130403 13 262 4.8 9.7 0.00 0.00 0.00 26 1012.4
20260506125903 13 143 4.8 14.5 0.00 0.00 0.00 21 1012.5
20260506125403 14 196 11.3 19.3 0.00 0.00 0.00 21 1012.5
20260506124903 13 225 9.7 14.5 0.00 0.00 0.00 21 1012.4
20260506124404 14 227 11.3 19.3 0.00 0.00 0.00 21 1012.4
20260506123903 14 157 12.9 19.3 0.00 0.00 0.00 20 1012.4
20260506123403 14 176 14.5 22.5 0.00 0.00 0.00 20 1012.5
20260506122903 13 202 11.3 16.1 0.00 0.00 0.00 24 1012.6
20260506122403 13 64 1.6 9.7 0.00 0.00 0.00 29 1012.6
20260506120903 13 18 1.6 4.8 0.00 0.00 0.00 27 1012.8
20260506115903 13 116 6.4 16.1 0.00 0.00 0.00 23 1012.9
20260506115404 13 130 16.1 22.5 0.00 0.00 0.00 22 1012.8
20260506114903 13 137 11.3 20.9 0.00 0.00 0.00 23 1012.8
20260506114403 13 166 4.8 14.5 0.00 0.00 0.00 26 1012.8
20260506113903 13 131 9.7 19.3 0.00 0.00 0.00 23 1012.9
20260506113402 13 71 6.4 14.5 0.00 0.00 0.00 23 1012.8
20260506112902 13 158 11.3 20.9 0.00 0.00 0.00 24 1012.8
20260506112403 13 129 16.1 20.9 0.00 0.00 0.00 25 1012.7
20260506111904 12 50 14.5 19.3 0.00 0.00 0.00 27 1012.8
20260506111404 12 63 11.3 24.1 0.00 0.00 0.00 25 1012.9
20260506105904 12 60 9.7 12.9 0.00 0.00 0.00 26 1013.1